Vorticity
nan nan nan nan nan nan nan nan nan nan nan nan nan nan nan nan nan nan nan nan nan nan nan nan nan nan nan nan nan nan nan nan nan nan nan nan nan nan nan nan nan nan nan nan nan nan nan nan nan
nan 10 7 6 8 10 3 3 10 8 5 2 5 5 3 3 8 5 -0 1 8 8 5 3 4 6 6 8 8 9 10 11 12 13 14 11 9 8 7 7 6 6 6 6 6 6 4 4 nan
nan 8 6 4 10 10 7 10 6 0 4 13 3 10 9 5 6 5 3 7 8 9 4 5 5 8 7 6 6 6 7 6 7 10 14 15 16 15 12 13 11 10 11 9 8 7 6 6 nan
nan 9 6 9 9 6 8 8 5 8 2 8 9 8 4 6 8 4 7 9 8 8 4 1 4 6 7 6 6 6 6 7 7 7 5 9 12 12 12 14 15 13 11 12 14 12 10 7 nan
nan 5 7 9 5 6 7 5 8 11 5 2 14 11 5 4 8 7 7 8 7 6 7 1 -0 2 4 6 5 6 6 6 6 6 6 6 6 6 7 6 9 11 8 9 12 13 13 14 nan
nan 8 12 7 2 4 2 7 8 10 6 9 14 7 4 6 5 7 7 7 7 7 6 1 -1 5 4 3 5 5 5 5 5 5 6 5 5 5 6 6 6 6 7 6 5 6 10 12 nan
nan 8 12 11 0 -2 2 8 14 6 5 7 6 9 8 5 5 6 6 6 5 6 6 7 5 -1 2 3 4 3 4 5 5 5 6 6 3 5 5 4 5 5 6 5 5 6 7 6 nan
nan 12 5 2 7 5 5 3 4 4 19 11 11 18 9 6 7 9 6 3 3 4 6 6 6 6 7 2 2 5 5 4 4 6 5 8 10 3 3 5 4 4 5 5 5 5 5 7 nan
nan 9 7 5 7 5 13 14 3 8 3 12 15 13 10 9 5 4 5 4 5 4 5 5 6 6 7 7 3 5 5 6 7 5 5 11 10 4 5 3 3 4 5 4 5 5 5 8 nan
nan 11 6 6 11 3 8 16 11 -1 2 6 4 -0 6 10 9 5 6 5 4 4 6 6 5 5 6 7 6 8 8 8 7 4 7 8 6 9 9 5 5 6 6 9 7 6 9 9 nan
nan 14 5 8 16 10 1 0 17 13 2 5 7 4 5 6 7 5 5 5 5 6 5 3 4 5 7 10 9 8 7 7 5 6 7 6 9 7 8 9 7 7 8 8 7 10 8 7 nan
nan 7 9 10 18 18 11 3 5 14 7 5 4 5 5 5 5 5 5 4 5 6 6 7 7 8 9 9 7 7 7 7 8 8 6 7 6 6 6 6 6 6 7 6 7 6 6 7 nan
nan 7 6 8 8 7 5 4 2 4 5 4 3 4 4 4 5 5 6 6 7 7 7 8 8 9 8 8 8 7 8 7 7 10 9 6 5 5 6 6 7 6 6 7 6 6 7 7 nan
nan 7 3 1 2 2 -2 6 5 1 4 4 3 3 3 5 7 7 7 7 8 8 7 7 8 9 8 8 8 10 7 7 9 8 6 6 7 6 6 7 6 7 7 6 6 6 7 7 nan
nan -3 -4 3 6 9 -5 -1 9 5 5 4 4 5 5 5 6 7 7 7 8 8 6 7 8 8 8 8 10 10 8 8 9 7 7 8 7 5 7 10 9 8 7 8 8 7 7 8 nan
nan 0 -1 3 11 10 3 2 4 5 5 4 5 5 5 4 6 8 7 7 8 8 8 8 8 7 8 10 11 8 6 8 9 9 10 8 9 8 8 7 8 8 8 9 8 8 8 7 nan
nan -1 14 6 3 4 17 12 4 6 5 3 4 4 5 5 7 7 7 8 8 8 8 8 8 8 10 12 10 9 9 9 8 9 9 9 10 8 8 7 5 7 9 9 8 7 8 7 nan
nan 6 8 7 8 7 15 8 4 4 4 4 5 4 5 6 8 7 8 9 9 9 8 10 9 7 12 14 11 11 11 9 7 7 5 9 10 9 9 7 6 8 8 7 7 8 8 8 nan
nan 8 3 12 10 8 15 7 3 1 2 5 5 4 7 7 7 8 8 8 8 8 9 10 9 11 14 11 10 9 8 9 10 8 6 7 6 10 10 8 8 7 8 8 7 7 8 9 nan
nan 8 12 11 -0 15 11 6 1 3 2 2 3 6 8 8 6 7 8 8 9 8 11 10 11 12 13 10 9 9 8 9 8 8 12 11 9 8 8 8 10 8 7 9 8 8 8 8 nan
nan 2 5 8 15 19 8 8 5 -0 -3 1 4 7 7 7 8 8 8 10 8 10 11 10 10 11 11 11 11 7 8 8 9 9 10 10 7 8 8 9 9 9 9 9 9 10 8 7 nan
nan -4 6 15 14 11 12 5 13 -0 -2 1 5 8 7 7 9 8 8 9 10 12 9 10 10 11 11 10 10 10 10 10 10 8 6 8 11 8 8 8 7 8 10 8 8 9 9 7 nan
nan 4 25 15 8 9 11 8 10 -1 -2 3 7 6 7 7 7 8 10 9 11 11 11 11 10 9 12 9 7 13 11 10 9 9 9 10 12 12 10 8 9 9 8 9 9 7 6 7 nan
nan 26 30 13 10 8 2 11 8 -2 1 5 7 6 7 8 9 10 10 11 10 10 10 10 11 11 7 8 10 9 9 10 10 8 12 11 12 13 11 10 12 11 8 9 10 10 9 8 nan
nan 26 16 7 9 -1 4 16 6 -1 2 7 6 7 8 10 10 9 9 11 11 10 11 10 8 8 9 11 11 11 12 13 12 12 11 10 11 11 10 10 9 10 11 9 7 11 12 10 nan
nan 15 13 4 5 8 9 18 8 -4 -2 7 8 7 9 10 10 7 10 11 10 9 9 9 11 11 11 11 13 13 14 13 12 10 8 11 9 10 11 11 8 7 7 8 11 12 9 8 nan
nan 10 11 12 9 7 12 20 -6 -10 4 6 7 9 10 10 8 8 12 12 9 10 9 11 10 11 12 13 14 13 13 10 9 11 10 9 8 8 10 10 12 10 9 8 9 8 9 10 nan
nan 12 13 7 10 10 8 6 -3 -2 6 6 7 10 10 9 8 12 10 12 11 9 11 11 11 11 12 14 14 12 12 13 12 13 11 10 11 10 10 10 10 13 12 9 9 9 9 8 nan
nan 12 13 12 7 8 9 2 3 2 4 7 8 10 10 9 11 11 12 10 10 11 12 11 10 12 13 12 12 12 13 15 17 15 13 11 12 13 11 11 10 11 12 12 9 8 10 9 nan
nan nan nan nan nan nan nan nan nan nan nan nan nan nan nan nan nan nan nan nan nan nan nan nan nan nan nan nan nan nan nan nan nan nan nan nan nan nan nan nan nan nan nan nan nan nan nan nan nan
CAPE
516 0 0 75 520 253 80 46 0 280 598 581 515 447 428 124 403 794 0 0 0 1 25 219 700 849 891 993 996 936 849 942 890 830 949 937 818 576 837 759 708 735 581 495 697 494 313 197 74
71 0 5 194 252 41 108 88 385 645 582 441 694 699 575 35 0 0 0 0 0 0 7 9 154 263 458 543 516 520 643 795 880 881 887 985 1024 1154 1012 778 871 728 664 649 663 708 664 379 216
0 0 27 113 0 102 74 226 643 624 516 482 708 134 13 0 0 0 0 0 0 0 1 3 12 9 9 17 18 14 33 86 238 621 1000 905 893 797 897 1009 1101 1091 1024 910 715 690 815 804 586
0 0 0 15 1 0 2 83 172 308 411 191 289 13 0 0 0 0 0 0 0 0 0 0 0 0 0 0 0 0 0 2 2 1 4 283 794 783 774 779 792 879 878 890 947 987 808 792 819
0 0 0 0 0 0 0 0 87 36 33 8 337 11 0 0 0 0 0 0 0 0 0 0 0 0 0 0 0 0 0 0 0 0 0 0 4 15 40 143 397 619 666 822 884 849 792 903 850
0 0 0 0 0 0 0 0 0 0 0 0 4 0 0 0 0 0 0 0 0 0 0 0 0 0 0 0 0 0 0 0 0 0 0 0 0 0 1 4 7 17 32 110 176 199 415 673 774
0 0 0 0 0 0 0 0 0 0 0 0 0 5 0 0 0 0 0 0 0 0 0 0 0 0 0 0 0 0 0 0 0 0 0 0 0 0 0 0 0 0 0 0 0 1 5 45 126
0 0 0 0 0 0 0 0 0 0 0 0 0 0 0 0 0 0 0 0 0 0 0 0 0 0 0 0 0 0 0 0 0 0 0 0 0 0 0 0 0 0 0 0 0 0 0 0 0
0 0 0 0 0 0 0 0 0 0 0 0 0 0 0 0 0 0 0 0 0 0 0 0 0 0 0 0 0 0 0 0 0 0 0 0 0 0 0 0 0 0 0 0 0 0 0 0 0
0 0 0 0 0 0 0 0 0 0 0 0 0 0 0 0 0 0 0 0 0 0 0 0 0 0 0 0 0 0 0 0 0 0 0 0 0 0 0 0 0 0 0 0 0 0 0 0 0
0 0 0 0 0 0 0 0 0 0 0 0 0 0 0 0 0 0 0 0 0 0 0 0 0 0 0 0 0 0 0 0 0 0 0 0 0 0 0 0 0 0 0 0 0 0 0 0 0
0 0 0 0 0 0 0 0 0 0 0 0 0 0 0 0 0 0 0 0 0 0 0 0 0 0 0 0 0 0 0 0 0 0 0 0 0 0 0 0 0 0 0 0 0 0 0 0 0
0 0 0 0 0 0 0 0 0 0 0 0 0 0 0 0 0 0 0 0 0 0 0 0 0 0 0 0 0 0 0 0 0 0 0 2 0 0 0 0 0 0 0 0 0 0 0 0 0
0 0 0 0 0 0 0 0 0 0 0 0 0 0 0 0 0 0 0 0 0 0 0 0 0 0 0 0 0 0 0 0 0 0 1 0 16 7 0 0 0 0 0 0 0 0 0 0 0
0 0 0 0 0 0 0 0 0 0 0 0 0 0 0 0 0 0 0 0 0 0 0 0 0 0 0 0 0 0 0 0 0 0 0 1 19 20 2 4 5 2 0 0 0 0 0 0 0
0 0 0 0 0 0 0 0 0 0 0 0 0 0 0 0 0 0 0 0 0 0 0 0 0 0 0 0 0 0 0 0 0 0 20 36 68 41 9 15 10 33 37 14 4 1 0 0 0
0 0 0 0 0 0 0 0 0 0 0 0 0 0 0 0 0 0 0 0 0 0 0 0 0 0 0 0 0 0 0 0 0 0 0 24 78 73 55 82 43 22 58 62 41 15 15 5 0
0 0 0 0 0 0 0 0 0 0 0 0 0 0 0 0 0 0 0 0 0 0 0 0 0 0 0 0 0 0 0 0 5 0 0 0 26 74 112 122 115 109 74 55 44 35 31 30 26
0 0 0 0 0 0 0 0 0 0 0 0 0 0 0 0 0 0 0 0 0 0 0 0 0 0 0 3 3 1 2 0 3 15 2 0 0 51 119 150 111 140 157 94 87 70 86 71 32
0 0 0 0 0 0 0 0 0 0 0 0 0 0 0 0 0 0 0 0 0 0 0 0 0 8 16 43 47 47 43 31 26 25 11 0 0 13 47 109 145 166 179 180 159 111 86 71 33
0 0 0 0 0 0 0 0 0 0 0 0 0 0 0 0 0 0 0 0 0 0 0 2 19 20 14 22 31 53 49 63 62 66 63 50 16 12 12 37 53 103 160 192 200 167 182 114 55
0 0 0 0 0 0 0 0 0 0 0 0 0 0 0 0 0 0 0 0 0 0 7 4 9 10 11 19 18 27 38 49 49 48 65 68 57 34 21 12 4 6 65 123 146 178 151 149 83
0 0 0 0 0 0 0 0 0 0 0 0 0 0 0 0 0 0 0 0 0 0 0 6 6 15 8 17 31 45 35 58 63 67 69 69 41 69 55 37 17 6 5 17 35 100 129 111 77
0 0 0 0 0 0 0 0 0 0 0 0 0 0 0 0 0 0 0 0 0 0 6 7 8 6 15 29 40 39 47 64 61 44 55 65 58 58 71 56 61 47 25 16 10 11 63 93 53
0 0 0 0 0 0 0 0 0 0 0 0 0 0 0 0 0 0 0 0 0 3 2 1 10 23 22 29 34 37 42 42 45 55 38 38 43 60 56 61 44 58 81 59 33 25 38 47 53
0 0 0 0 0 0 0 0 0 0 0 0 0 0 0 0 0 0 0 0 0 1 3 13 30 34 29 27 25 23 25 25 29 27 29 36 59 60 59 57 51 32 44 57 74 75 67 48 48
0 0 0 0 0 0 0 0 0 0 0 0 0 0 0 0 0 0 0 0 0 2 16 25 27 29 24 21 19 15 15 16 18 19 25 23 19 28 45 49 47 50 39 42 49 56 39 75 66
0 0 0 0 0 0 0 0 0 0 0 0 0 0 0 0 0 0 0 0 0 4 12 23 43 24 17 16 12 12 9 8 10 14 14 18 18 19 19 23 47 52 41 31 48 46 35 47 49
0 0 0 0 0 0 0 0 0 0 0 0 0 0 0 0 0 0 0 1 1 8 20 33 21 14 11 10 8 6 4 4 2 2 5 11 16 17 17 17 19 32 43 32 42 47 46 48 47
0 0 0 0 0 0 0 0 0 0 0 0 0 0 0 0 0 0 1 0 4 13 19 15 11 9 7 7 6 3 1 10 21 21 9 1 6 13 14 15 16 12 25 28 34 42 28 26 49